Location: Caltech
(34.1382°N, 118.1253°W)
Time: 16:20:08
(UTC-08:00)

Tiros 1 despin weight - All Passes

Search period start: 25 January 2015 00:00
Search period end: 04 February 2015 00:00
Orbit: 599 x 649 km, 48.2° (Epoch: 25 January)

Date Brightness Start Highest point End Pass type
(mag) Time Alt. Az. Time Alt. Az. Time Alt. Az.
25 Jan - 01:07:43 10° NW 01:11:52 31° NNE 01:15:57 10° E night (unlit)
25 Jan - 02:49:16 10° WNW 02:53:43 50° SW 02:58:05 10° SSE night (unlit)
25 Jan - 18:35:28 10° SW 18:40:07 61° SE 18:44:47 10° ENE visible
25 Jan - 20:17:56 10° W 20:22:06 29° NNW 20:26:12 10° NE visible
25 Jan - 22:02:21 10° NW 22:05:00 15° N 22:07:37 10° NNE night (unlit)
25 Jan - 23:44:55 10° NNW 23:48:09 18° NNE 23:51:23 10° ENE night (unlit)
26 Jan - 01:26:05 10° NW 01:30:39 56° NNE 01:35:08 10° ESE night (unlit)
26 Jan - 03:08:29 10° W 03:12:06 23° SW 03:15:35 10° S night (unlit)
26 Jan - 17:13:56 10° S 17:17:16 20° SE 17:20:42 10° E daylight
26 Jan - 18:53:58 10° WSW 18:58:41 67° NW 19:03:23 10° NE visible
26 Jan - 20:37:34 10° WNW 20:41:05 20° NNW 20:44:32 10° NNE visible
26 Jan - 22:21:39 10° NNW 22:24:11 14° N 22:26:44 10° NE night (unlit)
27 Jan - 00:03:16 10° NW 00:07:10 26° NNE 00:11:03 10° E night (unlit)
27 Jan - 01:44:38 10° NW 01:49:15 72° SW 01:53:45 10° SE night (unlit)
27 Jan - 17:31:12 10° SSW 17:35:37 42° SE 17:40:06 10° ENE daylight
27 Jan - 19:13:01 10° W 19:17:25 36° NNW 19:21:47 10° NE visible
27 Jan - 20:57:18 10° NW 21:00:11 16° N 21:03:02 10° NNE visible
27 Jan - 22:40:23 10° NNW 22:43:21 16° N 22:46:20 10° NE night (unlit)
28 Jan - 00:21:37 10° NW 00:26:02 42° NNE 00:30:24 10° ESE night (unlit)
28 Jan - 02:03:32 10° WNW 02:07:40 32° SW 02:11:42 10° SSE night (unlit)
28 Jan - 16:10:40 10° SSE 16:12:49 13° SE 16:15:12 10° E daylight
28 Jan - 17:49:23 10° SW 17:54:06 89° SE 17:58:51 10° NE visible
28 Jan - 19:32:29 10° WNW 19:36:19 23° NNW 19:40:06 10° NNE visible
28 Jan - 21:16:48 10° NW 21:19:21 14° N 21:21:53 10° NNE visible
28 Jan - 22:58:49 10° NNW 23:02:26 22° NNE 23:06:03 10° ENE night (unlit)
29 Jan - 00:40:03 10° NW 00:44:43 82° NE 00:49:17 10° SE night (unlit)
29 Jan - 02:23:22 10° W 02:26:00 15° SW 02:28:25 10° SSW night (unlit)
29 Jan - 16:27:06 10° SSW 16:31:09 30° SE 16:35:17 10° ENE daylight
29 Jan - 18:08:11 10° WSW 18:12:45 47° NNW 18:17:19 10° NE visible
29 Jan - 19:52:11 10° NW 19:55:22 17° NNW 19:58:29 10° NNE visible
29 Jan - 21:35:47 10° NNW 21:38:32 15° N 21:41:18 10° NE night (unlit)
29 Jan - 23:17:08 10° NW 23:21:22 33° NNE 23:25:34 10° E night (unlit)
30 Jan - 00:58:44 10° WNW 01:03:13 47° SW 01:07:35 10° SSE night (unlit)
30 Jan - 16:44:54 10° SW 16:49:33 64° SE 16:54:14 10° ENE daylight
30 Jan - 18:27:28 10° W 18:31:34 28° NNW 18:35:39 10° NE visible
30 Jan - 20:11:51 10° NW 20:14:30 15° N 20:17:09 10° NNE visible
30 Jan - 21:54:19 10° NNW 21:57:39 19° NNE 22:01:00 10° ENE night (unlit)
30 Jan - 23:35:30 10° NW 23:40:08 59° NE 23:44:40 10° ESE night (unlit)
31 Jan - 01:18:00 10° W 01:21:34 22° SW 01:24:59 10° S night (unlit)
31 Jan - 15:23:15 10° S 15:26:40 21° SE 15:30:14 10° E daylight
31 Jan - 17:03:26 10° WSW 17:08:06 64° NW 17:12:48 10° NE daylight
31 Jan - 18:47:04 10° WNW 18:50:34 20° NNW 18:53:59 10° NNE visible
31 Jan - 20:31:04 10° NNW 20:33:41 15° N 20:36:18 10° NE visible
31 Jan - 22:12:39 10° NW 22:16:39 27° NNE 22:20:38 10° E night (unlit)
31 Jan - 23:54:03 10° WNW 23:58:42 68° SW 00:03:15 10° SE night (unlit)
01 Feb - 15:40:35 10° SSW 15:45:02 45° SE 15:49:33 10° ENE daylight
01 Feb - 17:22:30 10° W 17:26:51 35° NNW 17:31:11 10° NE daylight
01 Feb - 19:06:47 10° NW 19:09:39 16° N 19:12:29 10° NNE visible
01 Feb - 20:49:46 10° NNW 20:52:50 17° NNE 20:55:54 10° NE visible
01 Feb - 22:30:59 10° NW 22:35:29 44° NNE 22:39:56 10° ESE night (unlit)
02 Feb - 00:12:58 10° WNW 00:17:06 31° SW 00:21:07 10° SSE night (unlit)
02 Feb - 14:19:50 10° SSE 14:22:13 14° SE 14:24:47 10° E daylight
02 Feb - 15:58:48 10° SW 16:03:30 86° NW 16:08:15 10° NE daylight
02 Feb - 17:41:58 10° WNW 17:45:45 23° NNW 17:49:30 10° NNE visible
02 Feb - 19:26:13 10° NNW 19:28:49 14° N 19:31:23 10° NNE visible
02 Feb - 21:08:09 10° NNW 21:11:52 23° NNE 21:15:36 10° ENE visible
02 Feb - 22:49:25 10° NW 22:54:08 86° NE 22:58:46 10° SE night (unlit)
03 Feb - 00:32:55 10° W 00:35:23 14° SW 00:37:41 10° SSW night (unlit)
03 Feb - 14:36:26 10° SSW 14:40:31 31° SE 14:44:42 10° ENE daylight
03 Feb - 16:17:37 10° WSW 16:22:08 45° NNW 16:26:42 10° NE daylight
03 Feb - 18:01:40 10° NW 18:04:47 17° NNW 18:07:53 10° NNE visible
03 Feb - 19:45:09 10° NNW 19:47:58 16° N 19:50:49 10° NE visible
03 Feb - 21:26:28 10° NW 21:30:47 35° NNE 21:35:04 10° E night (unlit)
03 Feb - 23:08:07 10° WNW 23:12:36 45° SW 23:16:59 10° SSE night (unlit)
